Year,Month,Day,Hour,Minute,Value (Times are PST for temperature in C)
2018,10,22,00,00,6.80
2018,10,22,00,01,6.80
2018,10,22,00,02,6.80
2018,10,22,00,03,6.80
2018,10,22,00,04,6.80
2018,10,22,00,05,6.80
2018,10,22,00,06,6.70
2018,10,22,00,07,6.70
2018,10,22,00,08,6.70
2018,10,22,00,09,6.70
2018,10,22,00,10,6.70
2018,10,22,00,11,6.70
2018,10,22,00,12,6.70
2018,10,22,00,13,6.70
2018,10,22,00,14,6.60
2018,10,22,00,15,6.60
2018,10,22,00,16,6.60
2018,10,22,00,17,6.60
2018,10,22,00,18,6.60
2018,10,22,00,19,6.60
2018,10,22,00,20,6.60
2018,10,22,00,21,6.60
2018,10,22,00,22,6.60
2018,10,22,00,23,6.60
2018,10,22,00,24,6.50
2018,10,22,00,25,6.50
2018,10,22,00,26,6.50
2018,10,22,00,27,6.50
2018,10,22,00,28,6.50
2018,10,22,00,29,6.50
2018,10,22,00,30,6.50
2018,10,22,00,31,6.50
2018,10,22,00,32,6.50
2018,10,22,00,33,6.50
2018,10,22,00,34,6.50
2018,10,22,00,35,6.50
2018,10,22,00,36,6.40
2018,10,22,00,37,6.40
2018,10,22,00,38,6.40
2018,10,22,00,39,6.40
2018,10,22,00,40,6.40
2018,10,22,00,41,6.40
2018,10,22,00,42,6.40
2018,10,22,00,43,6.40
2018,10,22,00,44,6.40
2018,10,22,00,45,6.40
2018,10,22,00,46,6.40
2018,10,22,00,47,6.40
2018,10,22,00,48,6.40
2018,10,22,00,49,6.40
2018,10,22,00,50,6.40
2018,10,22,00,51,6.30
2018,10,22,00,52,6.30
2018,10,22,00,53,6.30
2018,10,22,00,54,6.30
2018,10,22,00,55,6.30
2018,10,22,00,56,6.30
2018,10,22,00,57,6.30
2018,10,22,00,58,6.30
2018,10,22,00,59,6.30
2018,10,22,01,00,6.30
2018,10,22,01,01,6.30
2018,10,22,01,02,6.30
2018,10,22,01,03,6.30
2018,10,22,01,04,6.30
2018,10,22,01,05,6.30
2018,10,22,01,06,6.30
2018,10,22,01,07,6.30
2018,10,22,01,08,6.30
2018,10,22,01,09,6.30
2018,10,22,01,10,6.30
2018,10,22,01,11,6.30
2018,10,22,01,12,6.30
2018,10,22,01,13,6.30
2018,10,22,01,14,6.30
2018,10,22,01,15,6.30
2018,10,22,01,16,6.30
2018,10,22,01,17,6.30
2018,10,22,01,18,6.30
2018,10,22,01,19,6.30
2018,10,22,01,20,6.30
2018,10,22,01,21,6.30
2018,10,22,01,22,6.30
2018,10,22,01,23,6.30
2018,10,22,01,24,6.30
2018,10,22,01,25,6.30
2018,10,22,01,26,6.30
2018,10,22,01,27,6.20
2018,10,22,01,28,6.20
2018,10,22,01,29,6.20
2018,10,22,01,30,6.20
2018,10,22,01,31,6.20
2018,10,22,01,32,6.20
2018,10,22,01,33,6.20
2018,10,22,01,34,6.20
2018,10,22,01,35,6.20
2018,10,22,01,36,6.20
2018,10,22,01,37,6.20
2018,10,22,01,38,6.20
2018,10,22,01,39,6.20
2018,10,22,01,40,6.20
2018,10,22,01,41,6.20
2018,10,22,01,42,6.20
2018,10,22,01,43,6.20
2018,10,22,01,44,6.20
2018,10,22,01,45,6.20
2018,10,22,01,46,6.20
2018,10,22,01,47,6.20
2018,10,22,01,48,6.20
2018,10,22,01,49,6.20
2018,10,22,01,50,6.20
2018,10,22,01,51,6.20
2018,10,22,01,52,6.20
2018,10,22,01,53,6.20
2018,10,22,01,54,6.20
2018,10,22,01,55,6.20
2018,10,22,01,56,6.20
2018,10,22,01,57,6.20
2018,10,22,01,58,6.20
2018,10,22,01,59,6.20
2018,10,22,02,00,6.20
2018,10,22,02,01,6.10
2018,10,22,02,02,6.10
2018,10,22,02,03,6.10
2018,10,22,02,04,6.10
2018,10,22,02,05,6.00
2018,10,22,02,06,6.00
2018,10,22,02,07,6.00
2018,10,22,02,08,6.00
2018,10,22,02,09,5.90
2018,10,22,02,10,5.90
2018,10,22,02,11,5.90
2018,10,22,02,12,5.90
2018,10,22,02,13,5.90
2018,10,22,02,14,5.90
2018,10,22,02,15,5.90
2018,10,22,02,16,5.90
2018,10,22,02,17,5.80
2018,10,22,02,18,5.80
2018,10,22,02,19,5.80
2018,10,22,02,20,5.80
2018,10,22,02,21,5.80
2018,10,22,02,22,5.80
2018,10,22,02,23,5.80
2018,10,22,02,24,5.70
2018,10,22,02,25,5.70
2018,10,22,02,26,5.70
2018,10,22,02,27,5.70
2018,10,22,02,28,5.70
2018,10,22,02,29,5.70
2018,10,22,02,30,5.70
2018,10,22,02,31,5.60
2018,10,22,02,32,5.60
2018,10,22,02,33,5.60
2018,10,22,02,34,5.60
2018,10,22,02,35,5.60
2018,10,22,02,36,5.60
2018,10,22,02,37,5.60
2018,10,22,02,38,5.60
2018,10,22,02,39,5.60
2018,10,22,02,40,5.60
2018,10,22,02,41,5.60
2018,10,22,02,42,5.60
2018,10,22,02,43,5.60
2018,10,22,02,44,5.60
2018,10,22,02,45,5.60
2018,10,22,02,46,5.60
2018,10,22,02,47,5.60
2018,10,22,02,48,5.60
2018,10,22,02,49,5.60
2018,10,22,02,50,5.60
2018,10,22,02,51,5.60
2018,10,22,02,52,5.60
2018,10,22,02,53,5.60
2018,10,22,02,54,5.60
2018,10,22,02,55,5.60
2018,10,22,02,56,5.60
2018,10,22,02,57,5.60
2018,10,22,02,58,5.60
2018,10,22,02,59,5.60
2018,10,22,03,00,5.60
2018,10,22,03,01,5.70
2018,10,22,03,02,5.60
2018,10,22,03,03,5.60
2018,10,22,03,04,5.60
2018,10,22,03,05,5.60
2018,10,22,03,06,5.60
2018,10,22,03,07,5.60
2018,10,22,03,08,5.60
2018,10,22,03,09,5.60
2018,10,22,03,10,5.60
2018,10,22,03,11,5.60
2018,10,22,03,12,5.60
2018,10,22,03,13,5.70
2018,10,22,03,14,5.70
2018,10,22,03,15,5.70
2018,10,22,03,16,5.70
2018,10,22,03,17,5.70
2018,10,22,03,18,5.70
2018,10,22,03,19,5.70
2018,10,22,03,20,5.70
2018,10,22,03,21,5.70
2018,10,22,03,22,5.70
2018,10,22,03,23,5.70
2018,10,22,03,24,5.70
2018,10,22,03,25,5.80
2018,10,22,03,26,5.80
2018,10,22,03,27,5.80
2018,10,22,03,28,5.80
2018,10,22,03,29,5.80
2018,10,22,03,30,5.80
2018,10,22,03,31,5.80
2018,10,22,03,32,5.80
2018,10,22,03,33,5.80
2018,10,22,03,34,5.90
2018,10,22,03,35,5.90
2018,10,22,03,36,5.90
2018,10,22,03,37,5.90
2018,10,22,03,38,5.90
2018,10,22,03,39,5.90
2018,10,22,03,40,5.90
2018,10,22,03,41,5.90
2018,10,22,03,42,5.90
2018,10,22,03,43,5.90
2018,10,22,03,44,5.90
2018,10,22,03,45,5.90
2018,10,22,03,46,5.80
2018,10,22,03,47,5.80
2018,10,22,03,48,5.80
2018,10,22,03,49,5.80
2018,10,22,03,50,5.80
2018,10,22,03,51,5.80
2018,10,22,03,52,5.80
2018,10,22,03,53,5.80
2018,10,22,03,54,5.80
2018,10,22,03,55,5.80
2018,10,22,03,56,5.80
2018,10,22,03,57,5.80
2018,10,22,03,58,5.80
2018,10,22,03,59,5.80
2018,10,22,04,00,5.80
2018,10,22,04,01,5.80
2018,10,22,04,02,5.80
2018,10,22,04,03,5.80
2018,10,22,04,04,5.80
2018,10,22,04,05,5.80
2018,10,22,04,06,5.80
2018,10,22,04,07,5.90
2018,10,22,04,08,5.90
2018,10,22,04,09,5.90
2018,10,22,04,10,5.90
2018,10,22,04,11,5.90
2018,10,22,04,12,6.00
2018,10,22,04,13,6.00
2018,10,22,04,14,6.10
2018,10,22,04,15,6.10
2018,10,22,04,16,6.10
2018,10,22,04,17,6.10
2018,10,22,04,18,6.20
2018,10,22,04,19,6.20
2018,10,22,04,20,6.20
2018,10,22,04,21,6.30
2018,10,22,04,22,6.30
2018,10,22,04,23,6.30
2018,10,22,04,24,6.40
2018,10,22,04,25,6.40
2018,10,22,04,26,6.40
2018,10,22,04,27,6.40
2018,10,22,04,28,6.50
2018,10,22,04,29,6.50
2018,10,22,04,30,6.60
2018,10,22,04,31,6.60
2018,10,22,04,32,6.60
2018,10,22,04,33,6.60
2018,10,22,04,34,6.60
2018,10,22,04,35,6.60
2018,10,22,04,36,6.70
2018,10,22,04,37,6.70
2018,10,22,04,38,6.70
2018,10,22,04,39,6.70
2018,10,22,04,40,6.80
2018,10,22,04,41,6.80
2018,10,22,04,42,6.80
2018,10,22,04,43,6.80
2018,10,22,04,44,6.90
2018,10,22,04,45,6.90
2018,10,22,04,46,6.90
2018,10,22,04,47,6.90
2018,10,22,04,48,6.90
2018,10,22,04,49,6.90
2018,10,22,04,50,7.00
2018,10,22,04,51,7.00
2018,10,22,04,52,7.10
2018,10,22,04,53,7.10
2018,10,22,04,54,7.10
2018,10,22,04,55,7.10
2018,10,22,04,56,7.10
2018,10,22,04,57,7.20
2018,10,22,04,58,7.20
2018,10,22,04,59,7.20
2018,10,22,05,00,7.20
2018,10,22,05,01,7.20
2018,10,22,05,02,7.20
2018,10,22,05,03,7.30
2018,10,22,05,04,7.30
2018,10,22,05,05,7.30
2018,10,22,05,06,7.30
2018,10,22,05,07,7.30
2018,10,22,05,08,7.30
2018,10,22,05,09,7.30
2018,10,22,05,10,7.30
2018,10,22,05,11,7.40
2018,10,22,05,12,7.40
2018,10,22,05,13,7.40
2018,10,22,05,14,7.40
2018,10,22,05,15,7.40
2018,10,22,05,16,7.40
2018,10,22,05,17,7.40
2018,10,22,05,18,7.40
2018,10,22,05,19,7.50
2018,10,22,05,20,7.50
2018,10,22,05,21,7.60
2018,10,22,05,22,7.60
2018,10,22,05,23,7.60
2018,10,22,05,24,7.60
2018,10,22,05,25,7.60
2018,10,22,05,26,7.60
2018,10,22,05,27,7.60
2018,10,22,05,28,7.60
2018,10,22,05,29,7.60
2018,10,22,05,30,7.70
2018,10,22,05,31,7.70
2018,10,22,05,32,7.70
2018,10,22,05,33,7.70
2018,10,22,05,34,7.70
2018,10,22,05,35,7.70
2018,10,22,05,36,7.70
2018,10,22,05,37,7.70
2018,10,22,05,38,7.80
2018,10,22,05,39,7.80
2018,10,22,05,40,7.80
2018,10,22,05,41,7.80
2018,10,22,05,42,7.90
2018,10,22,05,43,7.90
2018,10,22,05,44,7.90
2018,10,22,05,45,7.90
2018,10,22,05,46,7.90
2018,10,22,05,47,7.90
2018,10,22,05,48,7.90
2018,10,22,05,49,7.90
2018,10,22,05,50,8.00
2018,10,22,05,51,8.00
2018,10,22,05,52,8.00
2018,10,22,05,53,8.00
2018,10,22,05,54,8.10
2018,10,22,05,55,8.10
2018,10,22,05,56,8.10
2018,10,22,05,57,8.10
2018,10,22,05,58,8.10
2018,10,22,05,59,8.10
2018,10,22,06,00,8.20
2018,10,22,06,01,8.20
2018,10,22,06,02,8.20
2018,10,22,06,03,8.20
2018,10,22,06,04,8.20
2018,10,22,06,05,8.20
2018,10,22,06,06,8.20
2018,10,22,06,07,8.20
2018,10,22,06,08,8.20
2018,10,22,06,09,8.20
2018,10,22,06,10,8.20
2018,10,22,06,11,8.20
2018,10,22,06,12,8.20
2018,10,22,06,13,8.20
2018,10,22,06,14,8.20
2018,10,22,06,15,8.20
2018,10,22,06,16,8.20
2018,10,22,06,17,8.20
2018,10,22,06,18,8.20
2018,10,22,06,19,8.20
2018,10,22,06,20,8.20
2018,10,22,06,21,8.20
2018,10,22,06,22,8.10
2018,10,22,06,23,8.10
2018,10,22,06,24,8.10
2018,10,22,06,25,8.10
2018,10,22,06,26,8.10
2018,10,22,06,27,8.10
2018,10,22,06,28,8.10
2018,10,22,06,29,8.10
2018,10,22,06,30,8.10
2018,10,22,06,31,8.10
2018,10,22,06,32,8.10
2018,10,22,06,33,8.10
2018,10,22,06,34,8.10
2018,10,22,06,35,8.10
2018,10,22,06,36,8.10
2018,10,22,06,37,8.10
2018,10,22,06,38,8.10
2018,10,22,06,39,8.10
2018,10,22,06,40,8.10
2018,10,22,06,41,8.10
2018,10,22,06,42,8.00
2018,10,22,06,43,8.00
2018,10,22,06,44,8.00
2018,10,22,06,45,8.00
2018,10,22,06,46,8.00
2018,10,22,06,47,8.00
2018,10,22,06,48,8.00
2018,10,22,06,49,8.00
2018,10,22,06,50,8.00
2018,10,22,06,51,8.00
2018,10,22,06,52,7.90
2018,10,22,06,53,7.90
2018,10,22,06,54,7.90
2018,10,22,06,55,7.90
2018,10,22,06,56,7.90
2018,10,22,06,57,7.90
2018,10,22,06,58,7.90
2018,10,22,06,59,7.90
2018,10,22,07,00,7.90
2018,10,22,07,01,7.90
2018,10,22,07,02,7.90
2018,10,22,07,03,7.80
2018,10,22,07,04,7.80
2018,10,22,07,05,7.80
2018,10,22,07,06,7.80
2018,10,22,07,07,7.80
2018,10,22,07,08,7.80
2018,10,22,07,09,7.80
2018,10,22,07,10,7.80
2018,10,22,07,11,7.80
2018,10,22,07,12,7.80
2018,10,22,07,13,7.80
2018,10,22,07,14,7.80
2018,10,22,07,15,7.70
2018,10,22,07,16,7.70
2018,10,22,07,17,7.70
2018,10,22,07,18,7.70
2018,10,22,07,19,7.70
2018,10,22,07,20,7.70
2018,10,22,07,21,7.70
2018,10,22,07,22,7.70
2018,10,22,07,23,7.70
2018,10,22,07,24,7.70
2018,10,22,07,25,7.60
2018,10,22,07,26,7.60
2018,10,22,07,27,7.60
2018,10,22,07,28,7.60
2018,10,22,07,29,7.60
2018,10,22,07,30,7.60
2018,10,22,07,31,7.60
2018,10,22,07,32,7.60
2018,10,22,07,33,7.60
2018,10,22,07,34,7.50
2018,10,22,07,35,7.50
2018,10,22,07,36,7.50
2018,10,22,07,37,7.50
2018,10,22,07,38,7.50
2018,10,22,07,39,7.50
2018,10,22,07,40,7.50
2018,10,22,07,41,7.40
2018,10,22,07,42,7.40
2018,10,22,07,43,7.40
2018,10,22,07,44,7.40
2018,10,22,07,45,7.40
2018,10,22,07,46,7.40
2018,10,22,07,47,7.40
2018,10,22,07,48,7.40
2018,10,22,07,49,7.30
2018,10,22,07,50,7.30
2018,10,22,07,51,7.30
2018,10,22,07,52,7.30
2018,10,22,07,53,7.30
2018,10,22,07,54,7.30
2018,10,22,07,55,7.30
2018,10,22,07,56,7.30
2018,10,22,07,57,7.30
2018,10,22,07,58,7.30
2018,10,22,07,59,7.20
2018,10,22,08,00,7.20
2018,10,22,08,01,7.20
2018,10,22,08,02,7.20
2018,10,22,08,03,7.20
2018,10,22,08,04,7.20
2018,10,22,08,05,7.20
2018,10,22,08,06,7.20
2018,10,22,08,07,7.20
2018,10,22,08,08,7.10
2018,10,22,08,09,7.10
2018,10,22,08,10,7.10
2018,10,22,08,11,7.10
2018,10,22,08,12,7.10
2018,10,22,08,13,7.10
2018,10,22,08,14,7.10
2018,10,22,08,15,7.10
2018,10,22,08,16,7.10
2018,10,22,08,17,7.10
2018,10,22,08,18,7.10
2018,10,22,08,19,7.10
2018,10,22,08,20,7.00
2018,10,22,08,21,7.10
2018,10,22,08,22,7.00
2018,10,22,08,23,7.00
2018,10,22,08,24,7.00
2018,10,22,08,25,7.00
2018,10,22,08,26,7.00
2018,10,22,08,27,7.10
2018,10,22,08,28,7.00
2018,10,22,08,29,7.00
2018,10,22,08,30,7.00
2018,10,22,08,31,7.00
2018,10,22,08,32,7.00
2018,10,22,08,33,7.00
2018,10,22,08,34,7.00
2018,10,22,08,35,7.00
2018,10,22,08,36,7.00
2018,10,22,08,37,7.00
2018,10,22,08,38,7.00
2018,10,22,08,39,7.00
2018,10,22,08,40,7.00
2018,10,22,08,41,7.00
2018,10,22,08,42,7.10
2018,10,22,08,43,7.10
2018,10,22,08,44,7.10
2018,10,22,08,45,7.10
2018,10,22,08,46,7.10
2018,10,22,08,47,7.10
2018,10,22,08,48,7.10
2018,10,22,08,49,7.10
2018,10,22,08,50,7.10
2018,10,22,08,51,7.10
2018,10,22,08,52,7.10
2018,10,22,08,53,7.10
2018,10,22,08,54,7.10
2018,10,22,08,55,7.10
2018,10,22,08,56,7.10
2018,10,22,08,57,7.10
2018,10,22,08,58,7.10
2018,10,22,08,59,7.10
2018,10,22,09,00,7.10
2018,10,22,09,01,7.10
2018,10,22,09,02,7.10
2018,10,22,09,03,7.10
2018,10,22,09,04,7.10
2018,10,22,09,05,7.10
2018,10,22,09,06,7.10
2018,10,22,09,07,7.10
2018,10,22,09,08,7.10
2018,10,22,09,09,7.20
2018,10,22,09,10,7.20
2018,10,22,09,11,7.20
2018,10,22,09,12,7.20
2018,10,22,09,13,7.20
2018,10,22,09,14,7.20
2018,10,22,09,15,7.20
2018,10,22,09,16,7.30
2018,10,22,09,17,7.30
2018,10,22,09,18,7.30
2018,10,22,09,19,7.30
2018,10,22,09,20,7.30
2018,10,22,09,21,7.40
2018,10,22,09,22,7.40
2018,10,22,09,23,7.40
2018,10,22,09,24,7.40
2018,10,22,09,25,7.50
2018,10,22,09,26,7.50
2018,10,22,09,27,7.50
2018,10,22,09,28,7.50
2018,10,22,09,29,7.50
2018,10,22,09,30,7.50
2018,10,22,09,31,7.60
2018,10,22,09,32,7.60
2018,10,22,09,33,7.60
2018,10,22,09,34,7.70
2018,10,22,09,35,7.70
2018,10,22,09,36,7.70
2018,10,22,09,37,7.70
2018,10,22,09,38,7.80
2018,10,22,09,39,7.80
2018,10,22,09,40,7.80
2018,10,22,09,41,7.80
2018,10,22,09,42,7.80
2018,10,22,09,43,7.90
2018,10,22,09,44,7.90
2018,10,22,09,45,7.90
2018,10,22,09,46,7.90
2018,10,22,09,47,7.90
2018,10,22,09,48,7.90
2018,10,22,09,49,7.90
2018,10,22,09,50,7.90
2018,10,22,09,51,8.00
2018,10,22,09,52,8.00
2018,10,22,09,53,8.10
2018,10,22,09,54,8.10
2018,10,22,09,55,8.10
2018,10,22,09,56,8.20
2018,10,22,09,57,8.20
2018,10,22,09,58,8.20
2018,10,22,09,59,8.30
2018,10,22,10,00,8.30
2018,10,22,10,01,8.30
2018,10,22,10,02,8.40
2018,10,22,10,03,8.40
2018,10,22,10,04,8.50
2018,10,22,10,05,8.50
2018,10,22,10,06,8.60
2018,10,22,10,07,8.60
2018,10,22,10,08,8.70
2018,10,22,10,09,8.70
2018,10,22,10,10,8.70
2018,10,22,10,11,8.70
2018,10,22,10,12,8.80
2018,10,22,10,13,8.80
2018,10,22,10,14,8.80
2018,10,22,10,15,8.80
2018,10,22,10,16,8.90
2018,10,22,10,17,8.90
2018,10,22,10,18,8.90
2018,10,22,10,19,8.90
2018,10,22,10,20,8.90
2018,10,22,10,21,9.00
2018,10,22,10,22,9.00
2018,10,22,10,23,9.10
2018,10,22,10,24,9.10
2018,10,22,10,25,9.10
2018,10,22,10,26,9.10
2018,10,22,10,27,9.10
2018,10,22,10,28,9.10
2018,10,22,10,29,9.20
2018,10,22,10,30,9.20
2018,10,22,10,31,9.20
2018,10,22,10,32,9.20
2018,10,22,10,33,9.20
2018,10,22,10,34,9.20
2018,10,22,10,35,9.20
2018,10,22,10,36,9.30
2018,10,22,10,37,9.30
2018,10,22,10,38,9.30
2018,10,22,10,39,9.30
2018,10,22,10,40,9.30
2018,10,22,10,41,9.30
2018,10,22,10,42,9.30
2018,10,22,10,43,9.30
2018,10,22,10,44,9.30
2018,10,22,10,45,9.40
2018,10,22,10,46,9.40
2018,10,22,10,47,9.40
2018,10,22,10,48,9.50
2018,10,22,10,49,9.50
2018,10,22,10,50,9.60
2018,10,22,10,51,9.60
2018,10,22,10,52,9.60
2018,10,22,10,53,9.60
2018,10,22,10,54,9.60
2018,10,22,10,55,9.60
2018,10,22,10,56,9.60
2018,10,22,10,57,9.60
2018,10,22,10,58,9.60
2018,10,22,10,59,9.60
2018,10,22,11,00,9.70
2018,10,22,11,01,9.70
2018,10,22,11,02,9.70
2018,10,22,11,03,9.80
2018,10,22,11,04,9.80
2018,10,22,11,05,9.90
2018,10,22,11,06,9.90
2018,10,22,11,07,10.00
2018,10,22,11,08,10.10
2018,10,22,11,09,10.10
2018,10,22,11,10,10.20
2018,10,22,11,11,10.20
2018,10,22,11,12,10.30
2018,10,22,11,13,10.30
2018,10,22,11,14,10.30
2018,10,22,11,15,10.30
2018,10,22,11,16,10.40
2018,10,22,11,17,10.30
2018,10,22,11,18,10.30
2018,10,22,11,19,10.30
2018,10,22,11,20,10.30
2018,10,22,11,21,10.30
2018,10,22,11,22,10.30
2018,10,22,11,23,10.30
2018,10,22,11,24,10.30
2018,10,22,11,25,10.40
2018,10,22,11,26,10.40
2018,10,22,11,27,10.40
2018,10,22,11,28,10.40
2018,10,22,11,29,10.40
2018,10,22,11,30,10.40
2018,10,22,11,31,10.40
2018,10,22,11,32,10.50
2018,10,22,11,33,10.50
2018,10,22,11,34,10.50
2018,10,22,11,35,10.60
2018,10,22,11,36,10.60
2018,10,22,11,37,10.70
2018,10,22,11,38,10.70
2018,10,22,11,39,10.70
2018,10,22,11,40,10.80
2018,10,22,11,41,10.80
2018,10,22,11,42,10.80
2018,10,22,11,43,10.80
2018,10,22,11,44,10.90
2018,10,22,11,45,10.90
2018,10,22,11,46,10.90
2018,10,22,11,47,11.00
2018,10,22,11,48,11.00
2018,10,22,11,49,11.10
2018,10,22,11,50,11.10
2018,10,22,11,51,11.20
2018,10,22,11,52,11.30
2018,10,22,11,53,11.30
2018,10,22,11,54,11.30
2018,10,22,11,55,11.30
2018,10,22,11,56,11.40
2018,10,22,11,57,11.40
2018,10,22,11,58,11.30
2018,10,22,11,59,11.30
2018,10,22,12,00,11.30
2018,10,22,12,01,11.30
2018,10,22,12,02,11.30
2018,10,22,12,03,11.30
2018,10,22,12,04,11.40
2018,10,22,12,05,11.40
2018,10,22,12,06,11.40
2018,10,22,12,07,11.40
2018,10,22,12,08,11.50
2018,10,22,12,09,11.50
2018,10,22,12,10,11.60
2018,10,22,12,11,11.60
2018,10,22,12,12,11.70
2018,10,22,12,13,11.70
2018,10,22,12,14,11.70
2018,10,22,12,15,11.70
2018,10,22,12,16,11.70
2018,10,22,12,17,11.70
2018,10,22,12,18,11.80
2018,10,22,12,19,11.80
2018,10,22,12,20,11.80
2018,10,22,12,21,11.80
2018,10,22,12,22,11.80
2018,10,22,12,23,11.80
2018,10,22,12,24,11.80
2018,10,22,12,25,11.80
2018,10,22,12,26,11.80
2018,10,22,12,27,11.80
2018,10,22,12,28,11.90
2018,10,22,12,29,11.90
2018,10,22,12,30,11.90
2018,10,22,12,31,11.90
2018,10,22,12,32,12.00
2018,10,22,12,33,12.00
2018,10,22,12,34,12.00
2018,10,22,12,35,12.10
2018,10,22,12,36,12.10
2018,10,22,12,37,12.20
2018,10,22,12,38,12.20
2018,10,22,12,39,12.20
2018,10,22,12,40,12.20
2018,10,22,12,41,12.20
2018,10,22,12,42,12.20
2018,10,22,12,43,12.20
2018,10,22,12,44,12.20
2018,10,22,12,45,12.20
2018,10,22,12,46,12.30
2018,10,22,12,47,12.30
2018,10,22,12,48,12.30
2018,10,22,12,49,12.30
2018,10,22,12,50,12.40
2018,10,22,12,51,12.40
2018,10,22,12,52,12.50
2018,10,22,12,53,12.50
2018,10,22,12,54,12.50
2018,10,22,12,55,12.60
2018,10,22,12,56,12.60
2018,10,22,12,57,12.70
2018,10,22,12,58,12.70
2018,10,22,12,59,12.70
2018,10,22,13,00,12.70
2018,10,22,13,01,12.80
2018,10,22,13,02,12.80
2018,10,22,13,03,12.80
2018,10,22,13,04,12.90
2018,10,22,13,05,12.90
2018,10,22,13,06,12.90
2018,10,22,13,07,12.90
2018,10,22,13,08,13.00
2018,10,22,13,09,13.00
2018,10,22,13,10,13.10
2018,10,22,13,11,13.10
2018,10,22,13,12,13.10
2018,10,22,13,13,13.10
2018,10,22,13,14,13.10
2018,10,22,13,15,13.10
2018,10,22,13,16,13.10
2018,10,22,13,17,13.20
2018,10,22,13,18,13.20
2018,10,22,13,19,13.20
2018,10,22,13,20,13.20
2018,10,22,13,21,13.20
2018,10,22,13,22,13.20
2018,10,22,13,23,13.20
2018,10,22,13,24,13.20
2018,10,22,13,25,13.10
2018,10,22,13,26,13.10
2018,10,22,13,27,13.10
2018,10,22,13,28,13.10
2018,10,22,13,29,13.00
2018,10,22,13,30,13.00
2018,10,22,13,31,13.00
2018,10,22,13,32,12.90
2018,10,22,13,33,12.90
2018,10,22,13,34,12.90
2018,10,22,13,35,12.90
2018,10,22,13,36,12.90
2018,10,22,13,37,12.90
2018,10,22,13,38,12.90
2018,10,22,13,39,12.90
2018,10,22,13,40,12.90
2018,10,22,13,41,12.90
2018,10,22,13,42,12.90
2018,10,22,13,43,12.90
2018,10,22,13,44,12.90
2018,10,22,13,45,12.90
2018,10,22,13,46,12.90
2018,10,22,13,47,12.90
2018,10,22,13,48,12.90
2018,10,22,13,49,12.90
2018,10,22,13,50,13.00
2018,10,22,13,51,13.00
2018,10,22,13,52,13.00
2018,10,22,13,53,13.00
2018,10,22,13,54,13.00
2018,10,22,13,55,13.00
2018,10,22,13,56,12.90
2018,10,22,13,57,13.00
2018,10,22,13,58,12.90
2018,10,22,13,59,12.90
2018,10,22,14,00,13.00
2018,10,22,14,01,13.10
2018,10,22,14,02,13.10
2018,10,22,14,03,13.20
2018,10,22,14,04,13.20
2018,10,22,14,05,13.30
2018,10,22,14,06,13.30
2018,10,22,14,07,13.30
2018,10,22,14,08,13.30
2018,10,22,14,09,13.40
2018,10,22,14,10,13.40
2018,10,22,14,11,13.50
2018,10,22,14,12,13.50
2018,10,22,14,13,13.50
2018,10,22,14,14,13.60
2018,10,22,14,15,13.60
2018,10,22,14,16,13.60
2018,10,22,14,17,13.60
2018,10,22,14,18,13.60
2018,10,22,14,19,13.60
2018,10,22,14,20,13.60
2018,10,22,14,21,13.60
2018,10,22,14,22,13.60
2018,10,22,14,23,13.60
2018,10,22,14,24,13.60
2018,10,22,14,25,13.60
2018,10,22,14,26,13.60
2018,10,22,14,27,13.60
2018,10,22,14,28,13.60
2018,10,22,14,29,13.60
2018,10,22,14,30,13.60
2018,10,22,14,31,13.60
2018,10,22,14,32,13.50
2018,10,22,14,33,13.50
2018,10,22,14,34,13.50
2018,10,22,14,35,13.50
2018,10,22,14,36,13.60
2018,10,22,14,37,13.60
2018,10,22,14,38,13.60
2018,10,22,14,39,13.60
2018,10,22,14,40,13.60
2018,10,22,14,41,13.60
2018,10,22,14,42,13.60
2018,10,22,14,43,13.60
2018,10,22,14,44,13.70
2018,10,22,14,45,13.70
2018,10,22,14,46,13.70
2018,10,22,14,47,13.80
2018,10,22,14,48,13.80
2018,10,22,14,49,13.70
2018,10,22,14,50,13.70
2018,10,22,14,51,13.70
2018,10,22,14,52,13.60
2018,10,22,14,53,13.60
2018,10,22,14,54,13.60
2018,10,22,14,55,13.60
2018,10,22,14,56,13.60
2018,10,22,14,57,13.50
2018,10,22,14,58,13.50
2018,10,22,14,59,13.50
2018,10,22,15,00,13.50
2018,10,22,15,01,13.50
2018,10,22,15,02,13.60
2018,10,22,15,03,13.60
2018,10,22,15,04,13.50
2018,10,22,15,05,13.50
2018,10,22,15,06,13.50
2018,10,22,15,07,13.50
2018,10,22,15,08,13.50
2018,10,22,15,09,13.50
2018,10,22,15,10,13.50
2018,10,22,15,11,13.50
2018,10,22,15,12,13.50
2018,10,22,15,13,13.60
2018,10,22,15,14,13.60
2018,10,22,15,15,13.60
2018,10,22,15,16,13.60
2018,10,22,15,17,13.60
2018,10,22,15,18,13.60
2018,10,22,15,19,13.60
2018,10,22,15,20,13.60
2018,10,22,15,21,13.60
2018,10,22,15,22,13.60
2018,10,22,15,23,13.60
2018,10,22,15,24,13.50
2018,10,22,15,25,13.60
2018,10,22,15,26,13.60
2018,10,22,15,27,13.60
2018,10,22,15,28,13.60
2018,10,22,15,29,13.60
2018,10,22,15,30,13.70
2018,10,22,15,31,13.70
2018,10,22,15,32,13.70
2018,10,22,15,33,13.80
2018,10,22,15,34,13.80
2018,10,22,15,35,13.80
2018,10,22,15,36,13.90
2018,10,22,15,37,13.90
2018,10,22,15,38,13.90
2018,10,22,15,39,14.00
2018,10,22,15,40,14.00
2018,10,22,15,41,14.00
2018,10,22,15,42,14.00
2018,10,22,15,43,14.00
2018,10,22,15,44,14.00
2018,10,22,15,45,13.90
2018,10,22,15,46,13.90
2018,10,22,15,47,13.90
2018,10,22,15,48,13.90
2018,10,22,15,49,13.90
2018,10,22,15,50,13.90
2018,10,22,15,51,13.90
2018,10,22,15,52,13.90
2018,10,22,15,53,13.90
2018,10,22,15,54,14.00
2018,10,22,15,55,14.00
2018,10,22,15,56,14.00
2018,10,22,15,57,14.00
2018,10,22,15,58,13.90
2018,10,22,15,59,13.90
2018,10,22,16,00,13.90
2018,10,22,16,01,13.90
2018,10,22,16,02,13.90
2018,10,22,16,03,13.90
2018,10,22,16,04,13.80
2018,10,22,16,05,13.80
2018,10,22,16,06,13.80
2018,10,22,16,07,13.80
2018,10,22,16,08,13.80
2018,10,22,16,09,13.80
2018,10,22,16,10,13.80
2018,10,22,16,11,13.80
2018,10,22,16,12,13.80
2018,10,22,16,13,13.80
2018,10,22,16,14,13.80
2018,10,22,16,15,13.80
2018,10,22,16,16,13.80
2018,10,22,16,17,13.80
2018,10,22,16,18,13.80
2018,10,22,16,19,13.80
2018,10,22,16,20,13.80
2018,10,22,16,21,13.80
2018,10,22,16,22,13.80
2018,10,22,16,23,13.80
2018,10,22,16,24,13.80
2018,10,22,16,25,13.80
2018,10,22,16,26,13.80
2018,10,22,16,27,13.80
2018,10,22,16,28,13.80
2018,10,22,16,29,13.90
2018,10,22,16,30,13.90
2018,10,22,16,31,13.90
2018,10,22,16,32,13.90
2018,10,22,16,33,13.90
2018,10,22,16,34,13.90
2018,10,22,16,35,13.90
2018,10,22,16,36,13.90
2018,10,22,16,37,13.90
2018,10,22,16,38,13.90
2018,10,22,16,39,13.90
2018,10,22,16,40,13.90
2018,10,22,16,41,13.90
2018,10,22,16,42,13.90
2018,10,22,16,43,13.90
2018,10,22,16,44,13.90
2018,10,22,16,45,13.90
2018,10,22,16,46,13.90
2018,10,22,16,47,13.90
2018,10,22,16,48,13.90
2018,10,22,16,49,13.90
2018,10,22,16,50,13.80
2018,10,22,16,51,13.80
2018,10,22,16,52,13.80
2018,10,22,16,53,13.80
2018,10,22,16,54,13.80
2018,10,22,16,55,13.80
2018,10,22,16,56,13.80
2018,10,22,16,57,13.80
2018,10,22,16,58,13.80
2018,10,22,16,59,13.80
2018,10,22,17,00,13.80
2018,10,22,17,01,13.80
2018,10,22,17,02,13.80
2018,10,22,17,03,13.70
2018,10,22,17,04,13.70
2018,10,22,17,05,13.70
2018,10,22,17,06,13.70
2018,10,22,17,07,13.70
2018,10,22,17,08,13.70
2018,10,22,17,09,13.70
2018,10,22,17,10,13.70
2018,10,22,17,11,13.70
2018,10,22,17,12,13.70
2018,10,22,17,13,13.70
2018,10,22,17,14,13.70
2018,10,22,17,15,13.70
2018,10,22,17,16,13.70
2018,10,22,17,17,13.70
2018,10,22,17,18,13.70
2018,10,22,17,19,13.70
2018,10,22,17,20,13.70
2018,10,22,17,21,13.70
2018,10,22,17,22,13.70
2018,10,22,17,23,13.70
2018,10,22,17,24,13.70
2018,10,22,17,25,13.70
2018,10,22,17,26,13.70
2018,10,22,17,27,13.70
2018,10,22,17,28,13.70
2018,10,22,17,29,13.70
2018,10,22,17,30,13.70
2018,10,22,17,31,13.70
2018,10,22,17,32,13.70
2018,10,22,17,33,13.70
2018,10,22,17,34,13.70
2018,10,22,17,35,13.70
2018,10,22,17,36,13.70
2018,10,22,17,37,13.70
2018,10,22,17,38,13.70
2018,10,22,17,39,13.70
2018,10,22,17,40,13.60
2018,10,22,17,41,13.60
2018,10,22,17,42,13.60
2018,10,22,17,43,13.60
2018,10,22,17,44,13.60
2018,10,22,17,45,13.50
2018,10,22,17,46,13.50
2018,10,22,17,47,13.50
2018,10,22,17,48,13.40